Tracking 25710 objects as of 6-Jul-2022
HD Live streaming from Space Station
objects crossing your sky now

STARLINK-2598

Track STARLINK-2598 now!
10-day predictions
STARLINK-2598 is classified as:


NORAD ID: 48385
Int'l Code: 2021-038AJ
Perigee: 553.2 km
Apogee: 555.5 km
Inclination: 53.1 °
Period: 95.6 minutes
Semi major axis: 6925 km
RCS: Unknown
Launch date: May 4, 2021
Source: United States (US)
Launch site: AIR FORCE EASTERN TEST RANGE (AFETR)
aabbcc
Your satellite tracking list
Your tracking list is empty




NASA's NSSDC Master Catalog

Two Line Element Set (TLE):
1 48385U 21038AJ  22186.71960490  .00001076  00000-0  91155-4 0  9996
2 48385  53.0557 260.4499 0001638  65.2438 294.8721 15.06400044 65979
Source of the keplerian elements: AFSPC